FW7194 Weather Reports


Display with metric or nautical units.
time (UTC)temp
F
wind
direction
speed
MPH
gust
MPH
rain 1hr
in
rain 24hr
in
rain mn
in
humidity
%
barometer
mb
20260831171050 83 158 0.0 1.0 0.00 0.00 0.00 84 1020.4
20260831170545 83 146 4.0 6.0 0.00 0.00 0.00 84 1020.6
20260831170043 83 125 3.0 5.0 0.00 0.00 0.00 84 1020.8
20260831165543 83 146 3.0 5.0 0.00 0.00 0.00 84 1020.8
20260831165040 83 140 1.0 5.0 0.00 0.00 0.00 84 1021.0
20260831164536 83 150 1.0 5.0 0.00 0.00 0.00 84 1020.8
20260831164031 83 144 3.0 5.0 0.00 0.00 0.00 83 1020.8
20260831163520 83 137 4.0 6.0 0.00 0.00 0.00 83 1020.9
20260831163016 83 110 2.0 3.0 0.00 0.00 0.00 83 1020.8
20260831162514 83 129 2.0 5.0 0.00 0.00 0.00 83 1020.9
20260831162012 83 122 1.0 7.0 0.00 0.00 0.00 83 1020.9
20260831161509 84 116 5.0 7.0 0.00 0.00 0.00 83 1020.8
20260831161004 84 139 2.0 7.0 0.00 0.00 0.00 83 1021.0
20260831160459 84 154 2.0 3.0 0.00 0.00 0.00 83 1020.8
20260831155953 84 153 1.0 2.0 0.00 0.00 0.00 83 1020.8
20260831155448 84 127 2.0 3.0 0.00 0.00 0.00 82 1020.9
20260831154944 84 115 3.0 6.0 0.00 0.00 0.00 82 1020.9
20260831154440 84 168 2.0 2.0 0.00 0.00 0.00 82 1020.7
20260831153939 84 151 1.0 3.0 0.00 0.00 0.00 82 1020.8
20260831153434 84 185 2.0 3.0 0.00 0.00 0.00 82 1020.7
20260831152931 84 139 3.0 5.0 0.00 0.00 0.00 81 1020.7
20260831152426 85 191 0.0 1.0 0.00 0.00 0.00 81 1020.5
20260831151921 85 90 1.0 2.0 0.00 0.00 0.00 81 1020.6
20260831151420 85 117 0.0 6.0 0.00 0.00 0.00 80 1020.6
20260831150916 85 131 1.0 5.0 0.00 0.00 0.00 80 1020.4
20260831150411 85 21 2.0 5.0 0.00 0.00 0.00 80 1020.2
20260831145910 85 59 2.0 2.0 0.00 0.00 0.00 81 1020.3
20260831145406 86 166 0.0 1.0 0.00 0.00 0.00 80 1020.3
20260831144902 86 58 4.0 7.0 0.00 0.00 0.00 80 1020.2
20260831144358 86 139 1.0 2.0 0.00 0.00 0.00 80 1020.2
20260831143852 86 125 1.0 2.0 0.00 0.00 0.00 80 1020.1
20260831143347 86 133 1.0 2.0 0.00 0.00 0.00 81 1020.2
20260831142843 86 139 2.0 6.0 0.00 0.00 0.00 81 1020.1
20260831142338 86 124 2.0 2.0 0.00 0.00 0.00 82 1020.1
20260831141838 85 107 0.0 0.0 0.00 0.00 0.00 82 1020.1
20260831141332 85 105 1.0 3.0 0.00 0.00 0.00 83 1020.0
20260831140827 85 115 0.0 1.0 0.00 0.00 0.00 83 1019.9
20260831140322 85 144 0.0 2.0 0.00 0.00 0.00 84 1019.9
20260831135820 84 186 1.0 1.0 0.00 0.00 0.00 84 1019.7
20260831135315 84 168 0.0 0.0 0.00 0.00 0.00 85 1019.8
20260831134811 84 110 4.0 5.0 0.00 0.00 0.00 85 1020.1
20260831134307 83 132 0.0 2.0 0.00 0.00 0.00 86 1019.8
20260831133806 83 89 2.0 3.0 0.00 0.00 0.00 86 1019.9
20260831133301 83 137 0.0 3.0 0.00 0.00 0.00 87 1019.9
20260831132756 83 37 6.0 7.0 0.00 0.00 0.00 88 1019.8
20260831132251 82 25 2.0 3.0 0.00 0.00 0.00 89 1019.7
20260831131750 82 75 4.0 7.0 0.00 0.00 0.00 90 1019.7
20260831131247 81 124 0.0 3.0 0.00 0.00 0.00 92 1019.8
20260831130742 81 131 0.0 0.0 0.00 0.00 0.00 93 1019.9
20260831130237 80 130 0.0 1.0 0.00 0.00 0.00 94 1019.9
20260831125735 80 133 0.0 1.0 0.00 0.00 0.00 94 1019.7
20260831125232 79 90 1.0 5.0 0.00 0.00 0.00 95 1019.7
20260831124726 79 49 4.0 5.0 0.00 0.00 0.00 96 1019.9
20260831124223 78 92 1.0 3.0 0.00 0.00 0.00 96 1019.9
20260831123722 78 103 1.0 3.0 0.00 0.00 0.00 97 1019.7
20260831123221 77 136 2.0 6.0 0.00 0.00 0.00 97 1019.7
20260831122716 76 109 3.0 5.0 0.00 0.00 0.00 96 1019.9
20260831122212 76 58 3.0 3.0 0.00 0.00 0.00 96 1019.5
20260831121710 76 99 2.0 5.0 0.00 0.00 0.00 96 1019.4
20260831121208 76 117 0.0 0.0 0.00 0.00 0.00 96 1019.5
20260831120702 75 126 0.0 2.0 0.00 0.00 0.00 96 1019.6
20260831120157 75 91 0.0 2.0 0.00 0.00 0.00 96 1019.6
20260831115653 75 103 0.0 0.0 0.00 0.00 0.00 96 1019.3
20260831115148 75 105 0.0 2.0 0.00 0.00 0.00 96 1019.3
20260831114648 75 123 0.0 3.0 0.00 0.00 0.00 96 1019.1
20260831114142 75 102 0.0 1.0 0.00 0.00 0.00 96 1019.1
20260831113642 75 117 0.0 1.0 0.00 0.00 0.00 96 1019.2
20260831113137 75 68 0.0 5.0 0.00 0.00 0.00 96 1019.2
20260831112636 75 108 0.0 0.0 0.00 0.00 0.00 96 1019.1
20260831112132 75 2 0.0 1.0 0.00 0.00 0.00 96 1018.9
20260831111628 75 45 0.0 1.0 0.00 0.00 0.00 96 1018.9
20260831111123 75 31 0.0 0.0 0.00 0.00 0.00 96 1019.0
20260831110618 75 32 0.0 0.0 0.00 0.00 0.00 96 1018.9
20260831110109 75 41 0.0 0.0 0.00 0.00 0.00 96 1018.9
20260831105607 75 43 0.0 0.0 0.00 0.00 0.00 96 1019.0
20260831105102 75 39 0.0 1.0 0.00 0.00 0.00 96 1018.9
20260831104558 75 21 0.0 0.0 0.00 0.00 0.00 96 1018.8
20260831104054 75 13 0.0 0.0 0.00 0.00 0.00 96 1019.0
20260831103548 75 16 0.0 0.0 0.00 0.00 0.00 96 1019.0
20260831103044 75 19 0.0 0.0 0.00 0.00 0.00 95 1019.1
20260831102538 75 39 0.0 0.0 0.00 0.00 0.00 95 1019.0
20260831102034 75 6 0.0 0.0 0.00 0.00 0.00 95 1018.8
20260831101529 75 5 0.0 0.0 0.00 0.00 0.00 95 1018.8
20260831101025 75 36 0.0 0.0 0.00 0.00 0.00 95 1018.7
20260831100520 75 36 1.0 1.0 0.00 0.00 0.00 95 1018.8
20260831100016 75 44 0.0 1.0 0.00 0.00 0.00 95 1018.8
20260831095515 75 24 0.0 0.0 0.00 0.00 0.00 95 1018.7
20260831095009 75 40 0.0 0.0 0.00 0.00 0.00 95 1018.8
20260831094505 75 40 0.0 0.0 0.00 0.00 0.00 95 1018.8
20260831094001 75 40 0.0 0.0 0.00 0.00 0.00 95 1018.7
20260831093456 75 39 0.0 0.0 0.00 0.00 0.00 95 1018.9
20260831092953 75 39 0.0 0.0 0.00 0.00 0.00 95 1018.5
20260831092448 75 39 0.0 0.0 0.00 0.00 0.00 95 1018.8
20260831091943 75 39 0.0 0.0 0.00 0.00 0.00 95 1018.6
20260831091438 75 40 0.0 0.0 0.00 0.00 0.00 95 1018.7
20260831090933 75 55 0.0 0.0 0.00 0.00 0.00 95 1018.5
20260831090430 75 35 0.0 0.0 0.00 0.00 0.00 95 1018.6
20260831085925 75 40 0.0 0.0 0.00 0.00 0.00 95 1018.4
20260831085420 75 9 0.0 0.0 0.00 0.00 0.00 95 1018.4
20260831084920 75 15 0.0 0.0 0.00 0.00 0.00 95 1018.4
20260831084416 75 65 0.0 1.0 0.00 0.00 0.00 95 1018.5
20260831083912 75 53 0.0 0.0 0.00 0.00 0.00 95 1018.4
20260831083408 75 51 0.0 0.0 0.00 0.00 0.00 95 1018.5
20260831082906 75 68 0.0 1.0 0.00 0.00 0.00 95 1018.5
20260831082406 75 104 0.0 0.0 0.00 0.00 0.00 95 1018.6
20260831081902 75 104 0.0 0.0 0.00 0.00 0.00 95 1018.7
20260831081357 75 107 0.0 0.0 0.00 0.00 0.00 95 1018.6
20260831080853 75 107 0.0 0.0 0.00 0.00 0.00 95 1018.8
20260831080348 76 107 0.0 0.0 0.00 0.00 0.00 95 1018.6
20260831075843 75 108 0.0 0.0 0.00 0.00 0.00 95 1018.6
20260831075338 76 108 0.0 0.0 0.00 0.00 0.00 95 1018.7
20260831074833 76 107 0.0 0.0 0.00 0.00 0.00 94 1018.6
20260831074332 76 107 0.0 0.0 0.00 0.00 0.00 94 1018.5
20260831073828 76 106 0.0 0.0 0.00 0.00 0.00 94 1018.6
20260831073327 76 108 0.0 0.0 0.00 0.00 0.00 94 1018.5
20260831072822 76 108 0.0 0.0 0.00 0.00 0.00 94 1018.7
20260831072313 76 103 0.0 0.0 0.00 0.00 0.00 94 1018.4
20260831071808 76 93 0.0 1.0 0.00 0.00 0.00 94 1018.6
20260831071302 76 104 0.0 0.0 0.00 0.00 0.00 94 1018.6
20260831070756 76 104 0.0 0.0 0.00 0.00 0.00 94 1018.6
20260831070255 76 104 0.0 0.0 0.00 0.00 0.00 94 1018.7
20260831065755 76 104 0.0 0.0 0.00 0.00 0.00 94 1018.7
20260831065253 76 104 0.0 0.0 0.00 0.00 0.00 94 1018.6
20260831064748 76 104 0.0 0.0 0.00 0.00 0.00 94 1018.8
20260831064243 76 104 0.0 0.0 0.00 0.00 0.00 94 1018.7
20260831063739 76 104 0.0 0.0 0.00 0.00 0.00 94 1018.7
20260831063239 76 104 0.0 0.0 0.00 0.00 0.00 94 1018.7
20260831062734 76 104 0.0 0.0 0.00 0.00 0.00 94 1018.8
20260831062229 76 104 0.0 0.0 0.00 0.00 0.00 94 1019.0
20260831061727 76 103 0.0 0.0 0.00 0.00 0.00 94 1018.8
20260831061222 76 99 0.0 0.0 0.00 0.00 0.00 94 1018.9
20260831060718 76 99 0.0 0.0 0.00 0.00 0.00 94 1019.0
20260831060218 76 99 0.0 0.0 0.00 0.00 0.00 94 1018.8
20260831055712 76 99 0.0 0.0 0.00 0.00 0.00 94 1019.0
20260831055207 76 99 0.0 0.0 0.00 0.00 0.00 93 1019.1
20260831054707 76 99 0.0 0.0 0.00 0.00 0.00 93 1019.2
20260831054202 76 98 0.0 0.0 0.00 0.00 0.00 93 1019.1
20260831053656 76 98 0.0 0.0 0.00 0.00 0.00 93 1019.1
20260831053155 76 98 0.0 0.0 0.00 0.00 0.00 93 1019.2
20260831052654 76 97 0.0 0.0 0.00 0.00 0.00 93 1019.3
20260831052154 76 97 0.0 0.0 0.00 0.00 0.00 93 1019.3
20260831051652 76 97 0.0 0.0 0.00 0.00 0.00 93 1019.4
20260831051150 76 96 0.0 0.0 0.00 0.00 0.00 93 1019.3
20260831050645 76 93 0.0 0.0 0.00 0.00 0.00 93 1019.4
20260831050144 77 89 0.0 0.0 0.00 0.00 0.00 93 1019.3
20260831045644 77 87 0.0 0.0 0.00 0.00 0.00 93 1019.2
20260831045139 77 201 0.0 0.0 0.00 0.00 0.00 93 1019.1
20260831044634 77 235 0.0 0.0 0.00 0.00 0.00 93 1019.2
20260831044129 77 230 0.0 0.0 0.00 0.00 0.00 93 1019.2
20260831043625 77 218 0.0 0.0 0.00 0.00 0.00 93 1019.2
20260831043120 77 214 0.0 1.0 0.00 0.00 0.00 93 1019.2
20260831042614 77 184 0.0 0.0 0.00 0.00 0.00 92 1019.4
20260831042109 77 178 0.0 0.0 0.00 0.00 0.00 92 1019.3
20260831041604 77 159 0.0 1.0 0.00 0.00 0.00 92 1019.4
20260831041103 77 132 0.0 0.0 0.00 0.00 0.00 92 1019.6
20260831040558 77 132 0.0 0.0 0.00 0.00 0.00 92 1019.4
20260831040057 77 131 0.0 0.0 0.00 0.00 0.00 92 1019.7
20260831035555 77 129 0.0 0.0 0.00 0.00 0.00 92 1019.8
20260831035051 77 127 0.0 0.0 0.00 0.00 0.00 92 1019.7
20260831034550 77 125 0.0 0.0 0.00 0.00 0.00 92 1019.8
20260831034046 77 125 0.0 0.0 0.00 0.00 0.00 92 1019.8
20260831033541 77 124 0.0 0.0 0.00 0.00 0.00 92 1019.9
20260831033036 77 124 0.0 0.0 0.00 0.00 0.00 92 1019.9
20260831032536 77 124 0.0 0.0 0.00 0.00 0.00 92 1019.7
20260831032032 77 124 0.0 0.0 0.00 0.00 0.00 92 1019.9
20260831031531 77 124 0.0 0.0 0.00 0.00 0.00 91 1019.8
20260831031030 77 123 0.0 0.0 0.00 0.00 0.00 91 1020.1
20260831030529 77 123 0.0 0.0 0.00 0.00 0.00 91 1020.0
20260831030023 78 122 0.0 0.0 0.00 0.00 0.00 91 1020.1
20260831025521 78 121 0.0 0.0 0.00 0.00 0.00 91 1020.0
20260831025017 78 120 0.0 0.0 0.00 0.00 0.00 91 1020.0
20260831024513 78 119 0.0 0.0 0.00 0.00 0.00 91 1020.0
20260831024012 78 119 0.0 0.0 0.00 0.00 0.00 91 1020.0
20260831023510 78 119 0.0 0.0 0.00 0.00 0.00 91 1019.9
20260831023005 78 119 0.0 0.0 0.00 0.00 0.00 91 1019.9
20260831022504 78 119 0.0 0.0 0.00 0.00 0.00 91 1019.9
20260831021959 78 119 0.0 0.0 0.00 0.00 0.00 90 1020.0
20260831021458 78 118 0.0 0.0 0.00 0.00 0.00 90 1020.1
20260831020954 78 173 0.0 2.0 0.00 0.00 0.00 90 1020.0
20260831020454 78 145 2.0 2.0 0.00 0.00 0.00 90 1019.9
20260831015949 78 180 0.0 0.0 0.00 0.00 0.00 90 1020.0
20260831015445 79 217 0.0 0.0 0.00 0.00 0.00 90 1020.2
20260831014946 79 213 0.0 0.0 0.00 0.00 0.00 90 1020.1
20260831014440 79 194 1.0 1.0 0.00 0.00 0.00 90 1020.3
20260831013936 79 206 0.0 2.0 0.00 0.00 0.00 90 1020.1
20260831013432 79 204 0.0 0.0 0.00 0.00 0.00 90 1020.1
20260831012932 79 183 0.0 0.0 0.00 0.00 0.00 90 1019.9
20260831012427 79 190 0.0 0.0 0.00 0.00 0.00 90 1019.9
20260831011926 79 185 0.0 1.0 0.00 0.00 0.00 89 1020.1
20260831011421 79 169 1.0 3.0 0.00 0.00 0.00 89 1020.0
20260831010917 79 138 2.0 2.0 0.00 0.00 0.00 89 1019.9
20260831010412 79 146 2.0 2.0 0.00 0.00 0.00 89 1019.6
20260831005907 79 124 0.0 3.0 0.00 0.00 0.00 89 1019.6
20260831005403 79 161 1.0 2.0 0.00 0.00 0.00 89 1019.7
20260831004857 79 168 0.0 1.0 0.00 0.00 0.00 89 1019.7
20260831004354 79 149 2.0 3.0 0.00 0.00 0.00 89 1019.7
20260831003849 79 184 0.0 2.0 0.00 0.00 0.00 89 1019.4
20260831003345 79 193 0.0 3.0 0.00 0.00 0.00 89 1019.7
20260831002844 79 164 0.0 1.0 0.00 0.00 0.00 89 1019.6
20260831002344 79 171 0.0 1.0 0.00 0.00 0.00 88 1019.5
20260831001839 80 139 1.0 1.0 0.00 0.00 0.00 88 1019.2
20260831001339 80 167 0.0 2.0 0.00 0.00 0.00 88 1019.5
20260831000837 80 173 1.0 1.0 0.00 0.00 0.00 88 1019.4
20260831000333 80 178 0.0 0.0 0.00 0.00 0.00 88 1019.5
20260830235830 80 184 0.0 1.0 0.00 0.00 0.00 88 1019.3
20260830235325 80 142 1.0 2.0 0.00 0.00 0.00 88 1019.3
20260830234821 80 179 0.0 1.0 0.00 0.00 0.00 88 1019.2
20260830234316 80 155 0.0 1.0 0.00 0.00 0.00 87 1019.2
20260830233812 80 85 1.0 2.0 0.00 0.00 0.00 87 1019.2
20260830233307 80 1 0.0 0.0 0.00 0.00 0.00 87 1019.3
20260830232803 81 2 0.0 0.0 0.00 0.00 0.00 87 1019.1
20260830232258 81 64 0.0 0.0 0.00 0.00 0.00 87 1019.2
20260830231755 81 73 0.0 1.0 0.00 0.00 0.00 87 1019.0
20260830231254 81 107 0.0 1.0 0.00 0.00 0.00 86 1019.1
20260830230749 81 105 0.0 2.0 0.00 0.00 0.00 86 1018.9
20260830230244 81 9 0.0 1.0 0.00 0.00 0.00 86 1018.9
20260830225744 82 30 1.0 3.0 0.00 0.00 0.00 86 1018.9
20260830225239 82 281 1.0 1.0 0.00 0.00 0.00 86 1019.0
20260830224738 82 355 0.0 3.0 0.00 0.00 0.00 85 1018.9
20260830224234 82 3 0.0 1.0 0.00 0.00 0.00 85 1019.1
20260830223730 82 59 0.0 3.0 0.00 0.00 0.00 85 1019.1
20260830223226 82 48 2.0 2.0 0.00 0.00 0.00 85 1018.9
20260830222720 82 47 3.0 3.0 0.00 0.00 0.00 85 1019.0
20260830222215 82 99 1.0 2.0 0.00 0.00 0.00 85 1019.1
20260830221711 82 29 2.0 3.0 0.00 0.00 0.00 85 1019.0
20260830221208 83 104 1.0 5.0 0.00 0.00 0.00 85 1018.8
20260830220703 83 109 1.0 3.0 0.00 0.00 0.00 85 1019.0
20260830220202 83 12 3.0 3.0 0.00 0.00 0.00 85 1019.2
20260830215701 83 89 3.0 6.0 0.00 0.00 0.00 85 1019.1
20260830215155 83 43 3.0 3.0 0.00 0.00 0.00 86 1019.1
20260830214651 83 49 0.0 1.0 0.00 0.00 0.00 86 1019.1
20260830214150 83 222 0.0 3.0 0.00 0.00 0.00 85 1019.3
20260830213650 83 76 2.0 5.0 0.00 0.00 0.00 85 1019.2
20260830213146 83 194 1.0 5.0 0.00 0.00 0.00 85 1019.4
20260830212641 83 40 2.0 5.0 0.00 0.00 0.00 85 1019.2
20260830212136 84 60 3.0 5.0 0.00 0.00 0.00 85 1019.1
20260830211631 84 8 4.0 8.0 0.00 0.00 0.00 85 1019.3
20260830211131 84 243 1.0 3.0 0.00 0.00 0.00 85 1019.4
20260830210626 83 192 3.0 6.0 0.00 0.00 0.00 85 1019.3
20260830210125 83 203 3.0 5.0 0.00 0.00 0.00 85 1019.4
20260830205622 83 86 4.0 7.0 0.00 0.00 0.00 85 1019.3
20260830205118 83 220 1.0 2.0 0.00 0.00 0.00 85 1019.6
20260830204618 83 190 1.0 3.0 0.00 0.00 0.00 85 1019.6
20260830204117 83 155 3.0 5.0 0.00 0.00 0.00 85 1019.7
20260830203613 83 181 1.0 7.0 0.00 0.00 0.00 85 1019.5
20260830203113 83 134 3.0 5.0 0.00 0.00 0.00 85 1019.8
20260830202608 83 150 4.0 6.0 0.00 0.00 0.00 85 1019.9
20260830202103 83 217 0.0 7.0 0.00 0.00 0.00 85 1020.0
20260830201602 83 75 1.0 8.0 0.00 0.00 0.00 85 1019.9
20260830201052 83 350 2.0 3.0 0.00 0.00 0.00 85 1019.9
20260830200548 83 69 1.0 6.0 0.00 0.00 0.00 85 1019.9
20260830200046 83 110 1.0 7.0 0.00 0.00 0.00 84 1019.9
20260830195542 84 143 6.0 8.0 0.00 0.00 0.00 84 1020.1
20260830195039 84 107 4.0 7.0 0.00 0.00 0.00 84 1020.1
20260830194534 84 138 2.0 7.0 0.00 0.00 0.00 84 1020.3
20260830194033 84 140 3.0 7.0 0.00 0.00 0.00 84 1020.2
20260830193533 84 197 2.0 8.0 0.00 0.00 0.00 84 1020.1
20260830193028 84 134 3.0 6.0 0.00 0.00 0.00 84 1020.3
20260830192523 84 137 5.0 8.0 0.00 0.00 0.00 83 1020.3
20260830192018 84 106 3.0 8.0 0.00 0.00 0.00 83 1020.1
20260830191513 84 104 3.0 8.0 0.00 0.00 0.00 83 1020.2
20260830191008 84 156 1.0 7.0 0.00 0.00 0.00 83 1020.2
20260830190504 84 188 2.0 8.0 0.00 0.00 0.00 83 1020.2
20260830190004 84 143 5.0 8.0 0.00 0.00 0.00 84 1020.2
20260830185458 84 179 1.0 5.0 0.00 0.00 0.00 84 1020.3
20260830184954 84 201 1.0 5.0 0.00 0.00 0.00 84 1020.1
20260830184453 84 11 2.0 7.0 0.00 0.00 0.00 83 1020.1
20260830183947 84 133 5.0 8.0 0.00 0.00 0.00 83 1020.2
20260830183442 84 148 3.0 5.0 0.00 0.00 0.00 83 1020.3
20260830182938 84 125 5.0 8.0 0.00 0.00 0.00 83 1020.4
20260830182433 84 97 5.0 7.0 0.00 0.00 0.00 83 1020.5
20260830181929 84 9 3.0 3.0 0.00 0.00 0.00 83 1020.4
20260830181425 84 169 5.0 9.0 0.00 0.00 0.00 83 1020.6
20260830180919 85 156 4.0 6.0 0.00 0.00 0.00 83 1020.7
20260830180418 85 158 2.0 6.0 0.00 0.00 0.00 83 1020.6
20260830175917 85 215 6.0 7.0 0.00 0.00 0.00 84 1020.8
20260830175417 84 138 3.0 5.0 0.00 0.00 0.00 85 1020.9
20260830174912 84 80 4.0 5.0 0.00 0.00 0.00 85 1021.2
20260830174408 84 299 1.0 3.0 0.00 0.00 0.00 86 1021.1
20260830173903 83 208 1.0 5.0 0.00 0.00 0.00 86 1021.2
20260830173359 83 25 1.0 3.0 0.00 0.00 0.00 86 1021.1
20260830172854 83 92 4.0 8.0 0.00 0.00 0.00 86 1021.0
20260830172350 83 96 5.0 8.0 0.00 0.00 0.00 86 1021.3
20260830171846 82 171 5.0 7.0 0.00 0.00 0.00 86 1021.3
20260830171342 82 166 3.0 5.0 0.00 0.00 0.00 86 1020.9